Location: Albany
(35.0170°S, 117.8920°E)
Time: 02:02:01
(UTC+08:00)

Explorer 7 - Pass Details

Date: 23 January 2021
Orbit: 484 x 677 km, 50.3° (Epoch: 01 March)

Event Time Altitude Azimuth Distance (km) Brightness Sun altitude
Rises 21:26:27 0° 223° (SW) 2,911 12.1 -21.8°
Reaches altitude 10° 21:29:33 10° 203° (SSW) 1,960 10.6 -22.2°
Maximum altitude 21:32:30 17° 161° (SSE) 1,508 9.3 -22.6°
Enters shadow 21:34:35 13° 129° (SE) 1,701 9.3 -22.9°
Drops below altitude 10° 21:35:21 10° 119° (ESE) 1,869 - -23.0°
Sets 21:38:12 0° 98° (E) 2,718 - -23.4°
